Location: Newark
(49.8969°N, 3.3422°E)
Time: 22:11:19
(UTC+00:00)

A-11 Canister half - Pass Details

Date: 02 February 2020
Orbit: 1517 x 1683 km, 47.2° (Epoch: 19 February)

Event Time Altitude Azimuth Distance (km) Brightness Sun altitude
Rises 19:17:24 0° 189° (S) 4,815 11.7 -25.1°
Reaches altitude 10° 19:21:32 10° 175° (S) 3,803 11.0 -25.8°
Enters shadow 19:25:31 19° 151° (SSE) 3,134 10.3 -26.4°
Maximum altitude 19:28:06 21° 131° (SE) 2,983 - -26.8°
Drops below altitude 10° 19:34:31 10° 87° (E) 3,728 - -27.9°
Sets 19:38:29 0° 73° (ENE) 4,694 - -28.5°
